Starlink 4772

operational
NORAD ID: 53932 Int'l Des: 2022-119 Owner: SPXS Country: US Constellation: starlink
LEOCIRCULAR

关于 Starlink 4772

正在加载描述...

实时位置

正在加载3D地球...

即将过境

高度历史

Altitude vs Time

uPlot chart will show altitude changes over time

两行轨道根数

1 53932U 22119AY 26035.43458439 -.00000468 00000-0 -11315-4 0 9998
2 53932 53.2177 88.4978 0001357 97.0988 263.0159 15.08835323187022
Epoch: Feb 4, 2026 • Age: 30 hours

当前状态

高度 558.6 km
速度 7.58 km/s
星下点 -51.64°S, 7.27°W
发射日期 Sep 24, 2022
运行时间 3.3 years
类型 internet

技术详情

分类 Payload
质量 305.00 kg
干质量 290.00 kg
总质量 305.00 kg
长度 0.20 m
直径 2.80 m
跨度 9.00 m
形状 Box + pan
制造商 SPXS
平台类型 Starlink
阶段状态 In Orbit
所有者/国家 SPXS/US

大型星座

Loading constellations...